Location: Ammerl�gen
(47.2167°N, 9.6000°E)
Time: 17:19:52
(UTC+00:00)

CZ-2C R/B - Pass Details

Date: 21 April 2021
Orbit: 639 x 705 km, 98.3° (Epoch: 07 May)

Event Time Altitude Azimuth Distance (km) Brightness Sun altitude
Rises 19:44:40 0° 20° (NNE) 2,962 7.3 -13.7°
Reaches altitude 10° 19:47:00 10° 27° (NNE) 2,044 6.3 -14.0°
Maximum altitude 19:51:13 42° 99° (E) 923 4.0 -14.6°
Enters shadow 19:53:53 20° 160° (SSE) 1,479 5.0 -15.0°
